www.pogodaiklimat.ru

Погода и климат >> Архив погоды >> Индонезия >> Сиболга


ПОГОДА в Сиболге

  • Прогноз погоды в Сиболге
  • Монитор погоды в Сиболге

АРХИВ ПОГОДЫ в Сиболге

Время (UTC), дата Ветер
(напр.,м/с)
 
Видим.   Явления Облачность Т
(С)
Тd
(С)
f
(%)
Тe
(С)
Тes
(С)
Комфортность P
(гПа)
Po
(гПа)
Тmin
(С)
Tmax
(С)
R
(мм)
R24
(мм)
S
(см)
12 14.08 штиль 0 8000 м 9/4 600 м
[Sc As op Ci sp]
+27.8 +24.8 84 +40 +40 очень
душно
1010.1 1008.7 +29.8
15 14.08 штиль 0 8000 м 9/4 600 м
[Sc As op Ci sp]
+24.5 +23.4 94 +33 +33 очень
душно
1012.4 1011.0
18 14.08 штиль 0 4000 м мгла 9/4 500 м
[Cb cap As op Ci sp]
+24.6 +24.1 97 +34 +34 очень
душно
1012.8 1011.4
21 14.08 штиль 0 5000 м мгла 9/4 450 м
[Cb cap As op Ci sp]
+24.4 +23.9 97 +33 +33 очень
душно
1011.2 1009.8
00 15.08 штиль 0 8000 м 9/4 500 м
[Cb cap As op Ci sp]
+23.6 +23.0 96 +31 +32 очень
душно
1011.9 1010.5 +22.2
03 15.08 ЮВ 2 10 км 9/4 600 м
[Sc As op Ci sp]
+26.6 +23.6 84 +36 +42 очень
душно
1012.8 1015.5
06 15.08 З 2 10 км 9/4 600 м
[Cu med, cong As op Ci sp]
+30.8 +23.1 64 +41 +48 опасность
перегрева
1011.1 1009.8
09 15.08 СЗ 2 10 км 9/4 600 м
[Cu med, cong As op Ci sp]
+30.0 +24.0 70 +41 +44 опасность
перегрева
1009.6 1008.4
12 15.08 З 3 10 км 9/6 450 м
[Cb cap As op Ci sp]
+28.0 +23.8 78 +39 +39 очень
душно
1010.3 1009.1 +31.0
15 15.08 штиль 0 5000 м в посл. час дождь 9/4 500 м
[Cb cap As op Ci sp]
+25.0 +23.5 91 +34 +34 очень
душно
1012.6 1011.3 2
18 15.08 штиль 0 5000 м мгла {дождь} 9/4 500 м
[Cb cap As op Ci sp]
+24.4 +23.5 95 +33 +33 очень
душно
1012.1 1010.7 2
21 15.08 штиль 0 5000 м мгла 9/4 600 м
[Sc As op Ci sp]
+24.0 +23.4 96 +32 +32 очень
душно
1010.3 1008.9
00 16.08 Ю 2 8000 м 9/4 600 м
[Cu med, cong As op Ci sp]
+23.6 +23.0 96 +31 +31 очень
душно
1011.6 1010.2 +22.8 2
03 16.08 Ю 3 10 км 9/4 600 м
[Cu med, cong As op Ci sp]
+26.8 +24.1 85 +37 +42 очень
душно
1013.3 1011.9
06 16.08 З 3 10 км 9/4 500 м
[Cb cap As op Ci sp]
+30.5 +23.2 65 +41 +47 опасность
перегрева
1012.8 1011.4
09 16.08 Ю 3 10 км 9/4 500 м
[Cb cap As op Ci sp]
+28.4 +23.6 75 +39 +41 очень
душно
1010.8 1009.4
12 16.08 СВ 2 6000 м слаб. дождь 9/4 400 м
[Cb cap Ac As Ci sp]
+25.8 +24.4 92 +36 +36 очень
душно
1011.7 1010.5 +31.4 9
15 16.08 СЗ 2 4000 м слаб. дождь 9/4 400 м
[Cb cap Ac As Ci sp]
+25.0 +24.1 95 +34 +34 очень
душно
1013.8 1012.6 10
18 16.08 СЗ 2 4000 м слаб. дождь 9/5 400 м
[Cb cap Ac As Ci sp]
+24.0 +23.7 98 +33 +33 очень
душно
1013.2 1012.8 42
21 16.08 Ю 1 4000 м в посл. час дождь 9/5 450 м
[Cb cap Ac cuf Ci sp]
+23.6 +23.0 96 +31 +31 очень
душно
1011.5 1010.1 5
00 17.08 ЮВ 3 5000 м {дождь} 9/4 600 м
[Sc As op Ci sp]
+22.2 +21.9 98 +29 +30 очень
душно
1010.8 1009.4 +21.8 66
03 17.08 Ю 2 10 км 9/4 600 м
[Sc As op Ci sp]
+26.6 +23.3 82 +36 +41 очень
душно
1011.2 1009.8
06 17.08 ЮЗ 3 10 км 9/4 600 м
[Cu med, cong As op Ci sp]
+31.6 +22.6 59 +41 +48 опасность
перегрева
1008.5 1007.1
09 17.08 ЮЗ 3 10 км 9/4 600 м
[Cu med, cong As op Ci sp]
+32.8 +23.2 57 +43 +45 опасность
перегрева
1007.2 1005.8
12 17.08 штиль 0 7000 м 9/4 600 м
[Sc As op Ci sp]
+28.8 +24.3 77 +40 +40 очень
душно
1008.9 1007.5 +33.0
15 17.08 штиль 0 5000 м мгла 9/4 600 м
[Sc As op Ci sp]
+24.6 +23.3 92 +33 +33 очень
душно
1011.0 1009.6
18 17.08 штиль 0 5000 м мгла 9/4 600 м
[Sc As op Ci sp]
+23.8 +23.1 96 +32 +32 очень
душно
1009.6 1008.3
21 17.08 штиль 0 5000 м мгла 9/4 600 м
[Sc As op Ci sp]
+23.5 +23.0 97 +31 +31 очень
душно
1009.3 1008.1
00 18.08 штиль 0 8000 м 9/4 500 м
[Cb cap As op Ci sp]
+24.0 +23.1 95 +32 +32 очень
душно
1009.9 1008.4 +22.0
03 18.08 ЮВ 1 10 км 5/5 300 м
[]
+29.8 +27.2 86 +47 +56 опасность
перегрева
1011.1 1009.7
06 18.08 СЗ 3 10 км 9/4 600 м
[Sc As op Ci sp]
+32.8 +24.1 60 +45 +51 опасность
перегрева
1008.7 1007.3
09 18.08 СЗ 4 10 км слаб. дождь 9/4 500 м
[Cb cap As op Ci sp]
+29.4 +26.1 82 +44 +46 опасность
перегрева
1007.6 1006.2 0.0
12 18.08 С 3 6000 м гроза, ливневой дождь 9/5 400 м
[Cb cap Ac As Ci sp]
+23.8 +22.6 93 +31 +31 очень
душно
1010.2 1008.8 +33.4 58
15 18.08 ЮВ 1 10 км 5/5 300 м
[]
+23.0 +23.1 100 +32 +32 очень
душно
1012.0 1010.6
18 18.08 штиль 0 5000 м мгла {дождь} 9/4 600 м
[Sc As op Ci sp]
+23.2 +22.9 98 +32 +32 очень
душно
1011.9 1010.5 6
21 18.08 штиль 0 5000 м мгла 9/4 600 м
[Sc As op Ci sp]
+23.0 +22.7 98 +32 +32 очень
душно
1011.2 1009.8
00 19.08 штиль 0 6000 м 9/4 500 м
[Cb cap As op Ci sp]
+23.0 +22.7 98 +32 +32 очень
душно
1011.7 1010.3 +21.3 65
03 19.08 штиль 0 8000 м 9/4 600 м
[Sc As op Ci sp]
+28.0 +24.1 79 +39 +46 очень
душно
1011.5 1010.1
06 19.08 Ю 3 7000 м 9/4 600 м
[Cu med, cong As op Ci sp]
+30.8 +23.4 65 +42 +48 опасность
перегрева
1009.2 1007.8
09 19.08 ЮЗ 3 8000 м 5/5 600 м
[]
+30.0 +26.4 81 +46 +49 опасность
перегрева
1007.8 1006.5
12 19.08 В 4 6000 м слаб. дождь 9/5 450 м
[Cb cap Ac As Ci sp]
+27.0 +23.1 79 +36 +36 очень
душно
1009.3 1007.9 +33.4 0.0
15 19.08 штиль 0 5000 м в посл. час дождь 9/4 450 м
[Cb cap Ac As Ci sp]
+24.8 +23.6 93 +34 +34 очень
душно
1011.4 1010.0 7
18 19.08 штиль 0 5000 м мгла {дождь} 9/4 600 м
[Sc As op Ci sp]
+24.4 +23.5 95 +33 +33 очень
душно
1010.4 1009.0 7
21 19.08 ЮВ 1 4800 м дым 5/5 300 м
[]
+23.5 +23.6 100 +32 +32 очень
душно
1009.5 1008.1
00 20.08 ЮВ 2 6000 м 9/4 600 м
[Cu med, cong As op Ci sp]
+23.5 +22.9 96 +31 +31 очень
душно
1010.0 1008.6 +22.2 7
03 20.08 З 2 8000 м 6/4 600 м
[Cu med, cong As op Ci sp]
+28.8 +24.6 78 +41 +48 опасность
перегрева
1010.2 1008.8
06 20.08 З 2 8000 м 9/4 600 м
[Cu med, cong As op Ci sp]
+32.2 +24.7 65 +45 +53 опасность
перегрева
1008.2 1006.9
09 20.08 ЮЗ 2 8000 м 5/5 300 м
[]
+29.1 +27.0 88 +46 +49 опасность
перегрева
1006.6 1005.2
12 20.08 штиль 0 4000 м гроза, ливневой дождь 9/5 400 м
[Cb cap Ac As Ci sp]
+25.8 +24.0 90 +36 +36 очень
душно
1007.8 1006.5 +33.1 3
15 20.08 В 2 3000 м слаб. дождь {гроза} 9/5 300 м
[Cb cap Ac As Ci sp]
+24.2 +23.9 98 +33 +33 очень
душно
1010.3 1008.9 61
18 20.08 штиль 0 4000 м слаб. дождь 9/5 300 м
[Cb cap Ac As Ci sp]
+23.7 +22.4 92 +31 +31 очень
душно
1009.5 1008.1 2
21 20.08 штиль 0 5000 м мгла {дождь} 9/4 450 м
[Cb cap Ac As Ci sp]
+23.5 +23.0 97 +31 +31 очень
душно
1009.1 1007.7 0.0
00 21.08 штиль 0 5000 м мгла 9/5 450 м
[Cb cap As op Ci sp]
+24.2 +23.9 98 +33 +33 очень
душно
1010.6 1009.3 +23.2 65
03 21.08 СЗ 3 10 км 9/9 300 м
[]
+24.0 +24.0 100 +33 +34 очень
душно
1013.1 1011.7
06 21.08 СЗ 4 8000 м в посл. час дождь 9/4 450 м
[Cb cap Ac As Ci sp]
+26.0 +24.1 89 +36 +41 очень
душно
1011.5 1010.1 2
09 21.08 СЗ 3 9000 м 9/4 500 м
[Cb cap As op Ci sp]
+28.0 +22.8 73 +37 +39 очень
душно
1009.5 1008.1

 

Местоположение метеостанции Сиболга (Индонезия): широта 1.55 долгота 98.88 высота над уровнем моря 3 м.

В архиве по умолчанию представлена погода в Сиболге за последнюю неделю. Архивные данные за месяц целиком и за предыдущие месяцы, начиная с января 2011 года, Вы можете получить, выбрав интересующий диапазон дат из раскрывающегося списка и нажав кнопку "Ввод!".


*Определитесь, кто Вы:
робот инопланетянин человек

Внимание! Время в таблицах - всемирное. Для получения местного времени необходимо прибавить поправку, которая равна 7 ч.

Смотрите также архив погоды в соседних городах и на ближайших метеорологических станциях:

Погода в Гунунгситоли (Индонезия) (139 км)
Погода в Медан Полония (Индонезия) (226 км)
Погода в Белаване (Индонезия) (251 км)
Погода в Пеканбару (Индонезия) (310 км)
Погода в Паданге (Индонезия) (316 км)
Погода в Куала-Лумпур аэропорту (Малайзия) (339 км)
Погода в Куала-Лумпуре (Малайзия) (344 км)
Погода в Ситаване (Малайзия) (359 км)
Погода в Малакке (Малайзия) (383 км)
Погода в Ипохе (Малайзия) (417 км)

Пояснения к столбцам:

Ветер - указаны скорость ветра в м/с - средняя за 10 мин, порывы в срок и между сроками (в фигурных скобках) и направление, откуда дует ветер: С - северный, СВ - северо-восточный, В - восточный, ЮВ - юго-восточный, Ю - южный, ЮЗ - юго-западный, З - западный, СЗ - северо-западный.
Видимость - горизонтальная дальность видимости в метрах или километрах. При видимости от 1 до 10 км при отсутствии осадков обычно наблюдается дымка, при ухудшении видимости до 1 км и менее - туман. В сухую погоду видимость может ухудшаться дымом, пылью или мглою.
Явления - указаны атмосферные явления, наблюдавшиеся в срок или в последний час перед сроком; фигурными скобками обозначены явления, наблюдавшиеся между сроками (за 1-3 часа до срока); квадратными скобками обозначены град или гололедные отложения с указанием их диаметра в мм.
Облачность - указаны через наклонную черту общая и нижняя облачность в баллах и высота нижней границы облаков в метрах; квадратными скобками обозначены формы облаков: Ci - перистые, Cs - перисто-слоистые, Cc - перисто-кучевые, Ac - высококучевые, As - высокослоистые, Sc - слоисто-кучевые, Ns - слоисто-дождевые, Cu - кучевые, Cb - кучево-дождевые. Подробнее классификацию облаков см. в Атласе облаков (PDF).
T - Температура воздуха - температура, измеренная на высоте 2 м над землей.
Td - Температура точки росы - температура, при понижении до которой содержащийся в воздухе водяной пар достигнет насыщения.
f - Относительная влажность воздуха - влажноcть воздуха, измеренная на высоте 2 м над землей.
Te - Эффективная температура - температура, которую ощущает одетый по сезону человек в тени. Характеристика душности погоды. При расчете учитывается влияние влажности воздуха и скорости ветра на теплоощущения человека.
Tes - Эффективная температура на солнце - температура, которую ощущает человек, с поправкой на солнечный нагрев. Характеристика знойности погоды. Зависит от высоты солнца над горизонтом, облачности и скорости ветра. Ночью, в пасмурную погоду, а также при ветре 12 м/с и более поправка равна нулю.
P - Атмосферное давление - приведенное к уровню моря атмосферное давление.
Po - Атмосферное давление - измеренное на уровне метеостанции атмосферное давление.
Tmin - Минимальная температура - минимум температуры воздуха на высоте 2 м над землей.
Tmax - Максимальная температура - максимум температуры воздуха на высоте 2 м над землей.
R - Количество осадков - Количество выпавших осадков за период времени, мм. При наведении курсора мыши на число - период времени, за который выпало указанное количество осадков.
R24 - Количество осадков - Количество выпавших осадков за 24 часа, мм.
S - Снежный покров - Высота снежного покрова, см. При наведении курсора мыши на число - состояние снежного покрова и степень покрытия местности в баллах.